BREEZE-M DEB (TANK), 36103

Orbit data source: Space-Track

BREEZE-M DEB (TANK), 36103 is space debris in HEO originally from a launch on Tue, 24 Nov 2009 UTC launched from the Tyuratam Missile And Space Complex (TTMTR). Debris objects in space refer to the collection of defunct objects orbiting the Earth. Examples of debris include non-operational satellites, rocket bodies, and fragments generated from explosions, collisions, or faulty payload assembly.

Loading next visibility...
BREEZE-M DEB (TANK) details
Identifier
36103, 2009-065C
Orbit
HEO
Last TLE update21 hours ago
Origin
Flag of CISKhrunichev (CIS)
ManufacturerKhrunichev
MissionSpacecraft
Bus & MotorBRIZ TANK, Unknown motor
Mass~1,000 kg wet, 1,000 kg dry
Launch date (UTC)
2009-11-24 (15 years ago)
Launch vehicleUnknown
Launch site
Tyuratam Missile And Space Complex (TTMTR)
Object type
Payload
Rocket body
Debris
Shape & HBRTorus, 4 m
Radar Cross Section8.218 m², Large (>1 m²)

Expand to show TLE details & history

TLE from 21 hours ago
0 BREEZE-M DEB (TANK)
1 36103U 09065C   24360.60362064  .00005100  00000-0  89150-3 0  9997
2 36103  49.3043 111.8281 5247940 306.7144  15.7026  5.21168882279859
Epoch: 2024-12-25T14:29Z
Definitive object data (Epoch: 2024-12-25T14:29:12.823Z)
Latitude0.00009°
Longitude159.91805°
Altitude1,375.975 km
Speed8.629 km/s
True Right ascension07h 27m 15s
True Declination0° 00' 00"
Sunlit
Object was in full shadow at TLE epoch
Visualization TLE readout
Latitude24.65034°
Longitude-43.96393°
Altitude13,793.718 km
Speed3.341 km/s
Apparent Right ascension18h 47m 02s
Apparent Declination12° 12' 28"
Sunlit
Object is in daylight
Visualization observer readout
Local Sidereal Time11:00:47
Azimuth63.148° ENE
Elevation-11.508°
Doppler factor1
Orbital elements
Apogee altitude15,049.91 km
Perigee altitude299.969 km
Semi-major axis14,053.077 km
Eccentricity0.524794
Inclination49.3043°
RAAN111.8281°
Arg. of periapsis306.7144°
True anomaly53.36336°
Mean anomaly15.7026°
Eccentric anomaly31.34305°
Mean motion1.30282 °/min
BSTAR0.0008915
Orbital period276.32 mins
Loading maneuver chart data...
Loading historical data...
Loading historical data...
Loading historical data...
Loading historical data...
Loading historical data...
Loading historical data...
Loading historical data...
Other satellites on launch #65 in the year 2009 (2009-11-24 UTC)

BREEZE-M DEB (TANK) Visibility forecast

Observer location: undefined°, undefined

Span
Click to sort rows by Start time (UTC) header in descending order
Start Az.
Max El. time (UTC)
Max El. Az.
Max El.
End time (UTC)
End Az.
194 mins2024-12-26 13:47:24.737Z277.169° WNW2024-12-26 14:41:24.737Z14.224° NNE44.195°2024-12-26 17:01:24.737Z122.635° SE
172 mins2024-12-26 18:57:24.737Z308.85° NW2024-12-26 20:29:24.737Z269.132° W35.147°2024-12-26 21:49:24.737Z205.831° SW
69 mins2024-12-27 08:00:24.737Z159.716° S2024-12-27 08:12:24.737Z99.061° ESE31.54°2024-12-27 09:09:24.737Z50.061° ENE
|